This demonstration page uses our WeatherBlox Daily Observations layout. Learn more.

Left ArrowRight Arrow

Hourly Observations for July 13, 2020

Temp ( °F °C ) Dew Point ( °F °C ) Humidity (%) Winds ( mph kmh ) Pressure ( in mb ) Visibility ( mi km ) Precip ( " mm )
12:51 am 00:51 Clear 89 31.7 47 8.3 23 23 N 7 11 29.71 1006 10 16.0934 0 0
1:51 am 01:51 Clear 94 34.4 47 8.3 20 20 NNW 13 20 29.68 1005 10 16.0934 0 0
2:51 am 02:51 Clear 94 34.4 48 8.9 21 21 NNW 16 26 29.67 1005 10 16.0934 0 0
3:51 am 03:51 Clear 90 32.2 51 10.6 26 26 WSW 13 20 29.7 1006 10 16.0934 0 0
4:51 am 04:51 Clear 84 28.9 49 9.4 30 30 Calm 29.73 1007 10 16.0934 0 0
5:51 am 05:51 Sunny 85 29.4 49 9.4 29 29 NW 6 9 29.75 1007 10 16.0934 0 0
6:51 am 06:51 Sunny 92 33.3 51 10.6 25 25 WNW 12 19 29.76 1008 10 16.0934 0 0
7:51 am 07:51 Sunny 96 35.6 52 11.1 23 23 NW 17 28 29.78 1009 10 16.0934 0 0
8:51 am 08:51 Sunny 99 37.2 52 11.1 21 21 WNW 16 26 29.78 1008 10 16.0934 0 0
9:51 am 09:51 Sunny 101 38.3 52 11.1 19 19 WNW 20 31 29.78 1008 10 16.0934 0 0
10:51 am 10:51 Sunny 104 40 51 10.6 17 17 NW 17 28 29.75 1008 10 16.0934 0 0
11:51 am 11:51 Sunny 106 41.1 50 10 15 15 WNW 18 30 29.73 1007 10 16.0934 0 0
12:51 pm 12:51 Sunny 107 41.7 50 10 15 15 NW 17 28 29.71 1006 10 16.0934 0 0
1:51 pm 13:51 Sunny 108 42.2 50 10 14 14 NW 21 33 29.68 1005 10 16.0934 0 0
2:51 pm 14:51 Sunny 108 42.2 48 8.9 13 13 NW 21 33 29.65 1004 10 16.0934 0 0
3:51 pm 15:51 Sunny 105 40.6 47 8.3 14 14 NW 22 35 29.64 1004 10 16.0934 0 0
4:51 pm 16:51 Sunny 106 41.1 47 8.3 14 14 WNW 17 28 29.65 1004 10 16.0934 0 0
5:51 pm 17:51 Sunny 105 40.6 48 8.9 15 15 WNW 18 30 29.64 1004 10 16.0934 0 0
6:51 pm 18:51 Sunny 101 38.3 49 9.4 17 17 WNW 24 39 29.66 1004 10 16.0934 0 0
7:51 pm 19:51 Clear 97 36.1 49 9.4 20 20 WNW 15 24 29.69 1005 10 16.0934 0 0
8:51 pm 20:51 Clear 93 33.9 49 9.4 22 22 WNW 8 13 29.73 1007 10 16.0934 0 0
9:51 pm 21:51 Clear 91 32.8 48 8.9 23 23 NW 8 13 29.73 1007 10 16.0934 0 0
10:51 pm 22:51 Clear 90 32.2 49 9.4 24 24 N 6 9 29.75 1007 10 16.0934 0 0
11:51 pm 23:51 Clear 88 31.1 53 11.7 30 30 SSE 10 17 29.78 1008 10 16.0934 0 0

Powered by AerisWeather